Regional Weather Roundup
Issued by NWS

Home | Current Version | Previous Version | Text Only | Print | Product List | Glossary On
Versions: 1 2 3 4 5 6 7 8 9 10 11 12 13 14 15 16 17 18 19 20 21 22 23 24 25 26 27 28 29 30 31 32 33 34 35 36 37 38 39 40 41 42 43 44 45 46 47 48 49 50
000
ASUS45 KBOU 292107
RWRCO

WEATHER ROUNDUP FOR COLORADO
NATIONAL WEATHER SERVICE DENVER/BOULDER CO
300 PM MDT FRI MAY 29 2015

NOTE: "FAIR" INDICATES FEW OR NO CLOUDS BELOW 12000 FEET WITH NO
SIGNIFICANT WEATHER AND/OR OBSTRUCTIONS TO VISIBILITY.

COZ001>005-013-030-031-292200-
...NORTHWEST COLORADO...

CITY           SKY/WX    TMP DP  RH WIND       PRES   REMARKS
CRAIG          PTSUNNY   63  41  44 NE6       30.27F
HAYDEN         MOSUNNY   55  39  54 N14       30.29S
MEEKER         MOSUNNY   61  42  49 MISG      30.27F
MOUNT WERNER   NOT AVBL
STEAMBOAT SPGS PTSUNNY   56  38  49 W10       30.29F
WALDEN         CLOUDY    50  37  62 W9        30.34S
$$

COZ006>008-011-292200-
...WEST CENTRAL VALLEYS...

CITY           SKY/WX    TMP DP  RH WIND       PRES   REMARKS
GRAND JUNCTION SUNNY     71  36  27 VRB5      30.17F
MONTROSE       MOSUNNY   70  33  25 CALM      30.23F
EAGLE          PTSUNNY   70  39  32 CALM      30.26F
RIFLE          MOSUNNY   69  38  32 W6        30.21F
DELTA          MOSUNNY   78  31  17 NW5G22    30.18F
NUCLA          MOSUNNY   72  32  23 N7G16     30.24F
$$

COZ017>023-064>068-292200-
...SOUTHWEST COLORADO...

CITY           SKY/WX    TMP DP  RH WIND       PRES   REMARKS
DURANGO        MOSUNNY   73  31  21 W16G23    30.18F
CORTEZ         MOSUNNY   74  27  17 NW10G20   30.19F
PAGOSA SPRINGS PTSUNNY   68  20  16 SW10G22   30.23F
TELLURIDE      PTSUNNY   58  29  33 W10G21    30.37S
WOLF CREEK PAS NOT AVBL
$$

COZ009-010-012-014-032>034-037-058>063-292200-
...CENTRAL COLORADO...

CITY           SKY/WX    TMP DP  RH WIND       PRES   REMARKS
ASPEN          PTSUNNY   58  33  39 CALM      30.28F
BUENA VISTA    PTSUNNY   61  24  24 W7        30.27F
COPPER MTN     CLOUDY    45  25  45 W13G22    30.47F
BERTHOUD PASS  CLOUDY    30  23  74 W22G31    30.50R WCI  17
COTTONWOOD PAS PTSUNNY   55  21  26 NW5       30.37S
GUNNISON       MOSUNNY   57  30  35 CALM      30.30F
KREMMLING      PTSUNNY   57  34  41 N7        30.29F
LEADVILLE      CLOUDY    48  24  39 SW6       30.37F
SALIDA         PTSUNNY   68  27  21 W14       30.31F
SUNLIGHT       PTSUNNY   45  32  61 W7        30.47F
WILKERSON PASS CLOUDY    45  21  39 W6        30.46F
$$

COZ069>075-292200-
...SAN LUIS VALLEY/SANGRE DE CRISTO MOUNTAINS...

CITY           SKY/WX    TMP DP  RH WIND       PRES   REMARKS
ALAMOSA        MOSUNNY   64  25  22 E5        30.22F
LA VETA PASS   PTSUNNY  N/A N/A N/A MISG      30.38F
SAGUACHE       MOSUNNY   66  27  22 N10G20    30.24F
$$

COZ035-036-038>040-292200-
...NORTHERN COLORADO FRONT RANGE...

CITY           SKY/WX    TMP DP  RH WIND       PRES   REMARKS
DENVER INTL AP MOSUNNY   64  43  46 NE16G24   30.20S
DMNS CITY PARK   N/A     64  40  41 NE13G23   30.18S
AURORA         PTSUNNY   66  45  46 NE15G23   30.21S
FRONT RANGE AP PTSUNNY   64  46  52 NE12      30.22S
ERIE MUNI ARPT PTSUNNY   67  42  39 E12       30.19R
BOULDER MUN AP CLOUDY    63  41  45 NE9       30.19S
CENTENNIAL     PTSUNNY   67  41  38 N13G22    30.20S
BROOMFIELD     PTSUNNY   64  43  45 NE14      30.21S
FORT COLLINS   PTSUNNY   59  46  63 E8        30.23R
LONGMONT       DRIZZLE   61  46  57 N16       30.22R
$$

COZ041-046-047-076>085-087-088-292200-
...PIKES PEAK/PALMER DIVIDE AND SOUTHERN FOOTHILLS...

CITY           SKY/WX    TMP DP  RH WIND       PRES   REMARKS
COLO. SPRINGS  PTSUNNY   66  44  45 S17       30.20F
A. F. ACADEMY  PTSUNNY   61  38  42 VRB6      30.21S
ELLICOTT       PTSUNNY  N/A N/A N/A NE9       30.21R
FALCON         CLOUDY    60  36  40 N9        30.25S
FORT CARSON    MOSUNNY   62  45  52 SE8       30.19S
LIMON          MOSUNNY   65  45  48 N16G28    30.18F
MONUMENT HILL  PTSUNNY   59  37  44 W12G17    30.26S
TRINIDAD       MOSUNNY   69  44  40 E8        30.16F
$$

COZ042>045-048>051-090-091-292200-
...NORTHEAST COLORADO...

CITY           SKY/WX    TMP DP  RH WIND       PRES   REMARKS
GREELEY ARPT   CLOUDY    55  46  71 S6        30.22R
AKRON          LGT RAIN  53  50  89 N14       30.19F
BURLINGTON     MOSUNNY   72  45  37 NW9       30.12S
WRAY           CLOUDY    61  48  62 N29G43    30.15R
STERLING       CLOUDY    63  50  63 N18       30.19S
HOLYOKE        PTSUNNY   61  50  67 N24G30    30.17R
FORT MORGAN    CLOUDY    57  49  73 N6        30.20F
$$

COZ086-089-092>099-292200-
...SOUTHEAST COLORADO...

CITY           SKY/WX    TMP DP  RH WIND       PRES   REMARKS
PUEBLO         MOSUNNY   71  45  39 E17       30.12S
LA JUNTA       MOSUNNY   75  45  34 E9        30.11F
LAMAR          PTSUNNY   76  49  38 N15       30.08F
SPRINGFIELD      N/A     69  48  47 NE12      30.11F
$$



USA.gov is the U.S. government's official web portal to all federal, state and local government web resources and services.